Starlink 11544

operational
NORAD ID: 62984 Int'l Des: 2025-031 Owner: SPXS Country: US Constellation: starlink
LEOCIRCULAR

关于 Starlink 11544

正在加载描述...

实时位置

正在加载3D地球...

即将过境

高度历史

Altitude vs Time

uPlot chart will show altitude changes over time

两行轨道根数

1 62984U 25031D 25304.60996257 .00130193 00000-0 10020-2 0 9990
2 62984 42.9999 59.3206 0001944 275.6828 84.3818 15.70847657 42417
Epoch: Oct 31, 2025 • Age: 10 hours

当前状态

高度 360.6 km
速度 7.70 km/s
星下点 43.08°N, 99.72°E
发射日期 Feb 11, 2025
运行时间 0.7 years
类型 internet

技术详情

分类 Payload
质量 960.00 kg
干质量 910.00 kg
总质量 960.00 kg
长度 0.30 m
直径 4.10 m
跨度 29.00 m
形状 Box + pan
制造商 SPXS
平台类型 Starlink V2MD
阶段状态 In Orbit
所有者/国家 SPXS/US

大型星座

Loading constellations...